Location: Huntsville
(41.2590°N, 111.7678°W)
Time: 21:18:57
(UTC+00:00)

Vanguard 3 - Pass Details

Date: 22 June 2021
Orbit: 508 x 3261 km, 33.4° (Epoch: 28 July)

Event Time Altitude Azimuth Distance (km) Brightness Sun altitude
Rises 16:05:06 0° 254° (WSW) 2,604 9.4 44.1°
Reaches altitude 10° 16:07:17 10° 242° (WSW) 1,774 8.7 44.5°
Maximum altitude 16:10:40 29° 180° (S) 1,123 8.3 45.1°
Drops below altitude 10° 16:15:05 10° 120° (ESE) 2,350 10.4 46.0°
Sets 16:18:26 0° 111° (ESE) 3,657 11.2 46.6°
